| time (UTC) | temp F | wind direction | speed MPH | gust MPH | rain 1hr in | rain 24hr in | rain mn in | humidity % | barometer mb |
| 20260906231547 | 68 | 104 | 1.0 | 4.0 | 0.00 | 0.05 | 0.05 | 83 | 1018.0 |
| 20260906231044 | 68 | 104 | 1.0 | 6.0 | 0.00 | 0.05 | 0.05 | 82 | 1017.9 |
| 20260906230547 | 68 | 104 | 0.0 | 6.0 | 0.00 | 0.05 | 0.05 | 82 | 1017.9 |
| 20260906230044 | 68 | 104 | 2.0 | 6.0 | 0.00 | 0.05 | 0.05 | 83 | 1017.9 |
| 20260906225542 | 68 | 104 | 3.0 | 6.0 | 0.00 | 0.05 | 0.05 | 82 | 1017.9 |
| 20260906225042 | 68 | 104 | 2.0 | 6.0 | 0.00 | 0.05 | 0.05 | 82 | 1017.8 |
| 20260906224542 | 68 | 104 | 1.0 | 6.0 | 0.00 | 0.05 | 0.05 | 82 | 1017.9 |
| 20260906224041 | 68 | 104 | 1.0 | 7.0 | 0.00 | 0.05 | 0.05 | 82 | 1017.8 |
| 20260906223541 | 68 | 104 | 2.0 | 6.0 | 0.00 | 0.05 | 0.05 | 82 | 1017.8 |
| 20260906223041 | 68 | 104 | 3.0 | 6.0 | 0.00 | 0.05 | 0.05 | 82 | 1017.8 |
| 20260906222540 | 68 | 104 | 3.0 | 7.0 | 0.00 | 0.05 | 0.05 | 82 | 1017.7 |
| 20260906222040 | 68 | 104 | 3.0 | 7.0 | 0.00 | 0.05 | 0.05 | 82 | 1017.7 |
| 20260906221539 | 68 | 104 | 3.0 | 7.0 | 0.00 | 0.05 | 0.05 | 81 | 1017.6 |
| 20260906221039 | 68 | 104 | 3.0 | 8.0 | 0.00 | 0.05 | 0.05 | 81 | 1017.6 |
| 20260906220540 | 69 | 104 | 4.0 | 8.0 | 0.00 | 0.05 | 0.05 | 81 | 1017.6 |
| 20260906220040 | 69 | 104 | 3.0 | 8.0 | 0.00 | 0.05 | 0.05 | 81 | 1017.6 |
| 20260906215538 | 69 | 104 | 2.0 | 9.0 | 0.00 | 0.05 | 0.05 | 81 | 1017.5 |
| 20260906215038 | 69 | 104 | 4.0 | 8.0 | 0.00 | 0.05 | 0.05 | 81 | 1017.5 |
| 20260906214539 | 69 | 104 | 3.0 | 7.0 | 0.00 | 0.05 | 0.05 | 81 | 1017.4 |
| 20260906214038 | 69 | 104 | 4.0 | 9.0 | 0.00 | 0.05 | 0.05 | 81 | 1017.4 |
| 20260906213538 | 69 | 104 | 5.0 | 9.0 | 0.00 | 0.05 | 0.05 | 82 | 1017.5 |
| 20260906213038 | 68 | 104 | 3.0 | 8.0 | 0.00 | 0.05 | 0.05 | 82 | 1017.5 |
| 20260906212536 | 68 | 104 | 2.0 | 8.0 | 0.00 | 0.05 | 0.05 | 82 | 1017.5 |
| 20260906212036 | 68 | 104 | 3.0 | 7.0 | 0.00 | 0.05 | 0.05 | 82 | 1017.4 |
| 20260906211537 | 68 | 104 | 4.0 | 7.0 | 0.00 | 0.05 | 0.05 | 82 | 1017.5 |
| 20260906211038 | 69 | 104 | 4.0 | 9.0 | 0.00 | 0.05 | 0.05 | 82 | 1017.4 |
| 20260906210536 | 69 | 104 | 5.0 | 10.0 | 0.00 | 0.05 | 0.05 | 82 | 1017.3 |
| 20260906210036 | 69 | 104 | 5.0 | 10.0 | 0.00 | 0.05 | 0.05 | 82 | 1017.3 |
| 20260906205535 | 69 | 104 | 4.0 | 8.0 | 0.00 | 0.05 | 0.05 | 81 | 1017.4 |
| 20260906205034 | 69 | 104 | 4.0 | 8.0 | 0.00 | 0.05 | 0.05 | 80 | 1017.4 |
| 20260906204546 | 69 | 104 | 4.0 | 8.0 | 0.00 | 0.05 | 0.05 | 81 | 1017.4 |
| 20260906204034 | 69 | 104 | 5.0 | 8.0 | 0.00 | 0.05 | 0.05 | 81 | 1017.3 |
| 20260906203536 | 69 | 104 | 4.0 | 8.0 | 0.00 | 0.05 | 0.05 | 82 | 1017.3 |
| 20260906203033 | 69 | 104 | 4.0 | 10.0 | 0.00 | 0.05 | 0.05 | 81 | 1017.1 |
| 20260906202533 | 69 | 104 | 7.0 | 13.0 | 0.00 | 0.05 | 0.05 | 80 | 1017.1 |
| 20260906202033 | 70 | 104 | 7.0 | 13.0 | 0.00 | 0.05 | 0.05 | 80 | 1017.1 |
| 20260906201534 | 69 | 104 | 6.0 | 10.0 | 0.00 | 0.05 | 0.05 | 81 | 1017.1 |
| 20260906201032 | 69 | 104 | 7.0 | 11.0 | 0.00 | 0.05 | 0.05 | 82 | 1017.1 |
| 20260906200532 | 69 | 104 | 6.0 | 11.0 | 0.00 | 0.05 | 0.05 | 81 | 1017.1 |
| 20260906200033 | 69 | 104 | 5.0 | 9.0 | 0.00 | 0.05 | 0.05 | 82 | 1017.2 |
| 20260906195533 | 69 | 104 | 5.0 | 10.0 | 0.00 | 0.05 | 0.05 | 81 | 1017.1 |
| 20260906195032 | 69 | 104 | 5.0 | 9.0 | 0.00 | 0.05 | 0.05 | 81 | 1017.1 |
| 20260906194532 | 69 | 104 | 7.0 | 10.0 | 0.00 | 0.05 | 0.05 | 81 | 1017.0 |
| 20260906194032 | 69 | 104 | 6.0 | 10.0 | 0.00 | 0.05 | 0.05 | 80 | 1017.0 |
| 20260906193531 | 69 | 104 | 5.0 | 9.0 | 0.00 | 0.05 | 0.05 | 79 | 1016.9 |
| 20260906193031 | 69 | 104 | 5.0 | 11.0 | 0.00 | 0.05 | 0.05 | 79 | 1017.0 |
| 20260906192531 | 69 | 104 | 6.0 | 11.0 | 0.00 | 0.05 | 0.05 | 80 | 1016.9 |
| 20260906192031 | 69 | 104 | 5.0 | 11.0 | 0.00 | 0.05 | 0.05 | 79 | 1017.0 |
| 20260906191531 | 70 | 104 | 6.0 | 11.0 | 0.00 | 0.05 | 0.05 | 80 | 1016.9 |
| 20260906191030 | 70 | 104 | 7.0 | 11.0 | 0.00 | 0.05 | 0.05 | 78 | 1017.0 |
| 20260906190530 | 71 | 104 | 6.0 | 10.0 | 0.00 | 0.05 | 0.05 | 78 | 1016.9 |
| 20260906190030 | 71 | 104 | 6.0 | 10.0 | 0.00 | 0.05 | 0.05 | 78 | 1017.0 |
| 20260906185533 | 70 | 104 | 6.0 | 10.0 | 0.00 | 0.05 | 0.05 | 80 | 1016.9 |
| 20260906185030 | 70 | 104 | 4.0 | 8.0 | 0.00 | 0.05 | 0.05 | 79 | 1016.8 |
| 20260906184530 | 70 | 104 | 5.0 | 9.0 | 0.00 | 0.05 | 0.05 | 80 | 1016.9 |
| 20260906184029 | 70 | 104 | 5.0 | 9.0 | 0.00 | 0.05 | 0.05 | 79 | 1016.9 |
| 20260906183531 | 70 | 104 | 4.0 | 8.0 | 0.00 | 0.05 | 0.05 | 79 | 1017.0 |
| 20260906183031 | 70 | 104 | 5.0 | 10.0 | 0.00 | 0.05 | 0.05 | 80 | 1017.0 |
| 20260906182628 | 70 | 104 | 5.0 | 10.0 | 0.00 | 0.05 | 0.05 | 81 | 1017.1 |
| 20260906182030 | 69 | 104 | 5.0 | 10.0 | 0.00 | 0.05 | 0.05 | 82 | 1017.1 |
| 20260906181529 | 69 | 104 | 7.0 | 10.0 | 0.00 | 0.05 | 0.05 | 82 | 1017.1 |
| 20260906181028 | 69 | 104 | 7.0 | 10.0 | 0.00 | 0.05 | 0.05 | 82 | 1017.1 |
| 20260906180532 | 69 | 102 | 6.0 | 10.0 | 0.00 | 0.05 | 0.05 | 81 | 1017.1 |
| 20260906180028 | 69 | 96 | 6.0 | 10.0 | 0.00 | 0.05 | 0.05 | 81 | 1017.1 |
| 20260906175529 | 69 | 96 | 6.0 | 11.0 | 0.00 | 0.05 | 0.05 | 79 | 1017.1 |
| 20260906175027 | 69 | 96 | 5.0 | 11.0 | 0.00 | 0.05 | 0.05 | 78 | 1017.1 |
| 20260906174528 | 70 | 96 | 5.0 | 12.0 | 0.00 | 0.05 | 0.05 | 79 | 1017.2 |
| 20260906174028 | 70 | 96 | 4.0 | 9.0 | 0.00 | 0.05 | 0.05 | 79 | 1017.1 |
| 20260906173527 | 69 | 96 | 6.0 | 9.0 | 0.00 | 0.05 | 0.05 | 79 | 1017.1 |
| 20260906173027 | 69 | 96 | 4.0 | 8.0 | 0.00 | 0.05 | 0.05 | 79 | 1017.2 |
| 20260906172528 | 69 | 96 | 3.0 | 9.0 | 0.00 | 0.05 | 0.05 | 80 | 1017.3 |
| 20260906172026 | 69 | 96 | 5.0 | 9.0 | 0.00 | 0.05 | 0.05 | 80 | 1017.2 |
| 20260906171526 | 69 | 96 | 4.0 | 10.0 | 0.00 | 0.05 | 0.05 | 79 | 1017.3 |
| 20260906171026 | 69 | 96 | 5.0 | 14.0 | 0.00 | 0.05 | 0.05 | 78 | 1017.2 |
| 20260906170526 | 70 | 92 | 6.0 | 11.0 | 0.00 | 0.05 | 0.05 | 78 | 1017.0 |
| 20260906170026 | 70 | 92 | 7.0 | 12.0 | 0.00 | 0.05 | 0.05 | 78 | 1017.1 |
| 20260906165526 | 69 | 92 | 7.0 | 12.0 | 0.00 | 0.05 | 0.05 | 80 | 1017.2 |
| 20260906165025 | 69 | 92 | 8.0 | 11.0 | 0.00 | 0.05 | 0.05 | 80 | 1017.2 |
| 20260906164525 | 69 | 92 | 7.0 | 14.0 | 0.00 | 0.05 | 0.05 | 80 | 1017.3 |
| 20260906164026 | 69 | 92 | 6.0 | 14.0 | 0.00 | 0.05 | 0.05 | 80 | 1017.3 |
| 20260906163525 | 69 | 89 | 8.0 | 14.0 | 0.00 | 0.05 | 0.05 | 80 | 1017.3 |
| 20260906163026 | 70 | 82 | 7.0 | 13.0 | 0.00 | 0.05 | 0.05 | 79 | 1017.2 |
| 20260906162527 | 70 | 80 | 5.0 | 12.0 | 0.00 | 0.05 | 0.05 | 78 | 1017.3 |
| 20260906162024 | 72 | 76 | 4.0 | 10.0 | 0.00 | 0.05 | 0.05 | 76 | 1017.3 |
| 20260906161529 | 72 | 76 | 4.0 | 8.0 | 0.00 | 0.05 | 0.05 | 75 | 1017.4 |
| 20260906161024 | 71 | 76 | 4.0 | 8.0 | 0.00 | 0.05 | 0.05 | 76 | 1017.3 |
| 20260906160523 | 72 | 76 | 2.0 | 6.0 | 0.00 | 0.05 | 0.05 | 76 | 1017.3 |
| 20260906160024 | 72 | 76 | 3.0 | 7.0 | 0.00 | 0.05 | 0.05 | 75 | 1017.3 |
| 20260906155524 | 72 | 76 | 3.0 | 9.0 | 0.00 | 0.05 | 0.05 | 74 | 1017.4 |
| 20260906155023 | 71 | 76 | 4.0 | 10.0 | 0.00 | 0.05 | 0.05 | 74 | 1017.3 |
| 20260906154537 | 71 | 76 | 5.0 | 10.0 | 0.00 | 0.05 | 0.05 | 73 | 1017.2 |
| 20260906154023 | 72 | 76 | 3.0 | 10.0 | 0.00 | 0.05 | 0.05 | 72 | 1017.3 |
| 20260906153523 | 73 | 76 | 1.0 | 9.0 | 0.00 | 0.05 | 0.05 | 72 | 1017.3 |
| 20260906153022 | 73 | 76 | 4.0 | 9.0 | 0.00 | 0.05 | 0.05 | 73 | 1017.3 |
| 20260906152525 | 73 | 76 | 3.0 | 8.0 | 0.00 | 0.05 | 0.05 | 72 | 1017.3 |
| 20260906152021 | 73 | 76 | 2.0 | 9.0 | 0.00 | 0.05 | 0.05 | 74 | 1017.4 |
| 20260906151521 | 73 | 76 | 4.0 | 9.0 | 0.01 | 0.05 | 0.05 | 73 | 1017.4 |
| 20260906151020 | 73 | 76 | 1.0 | 9.0 | 0.01 | 0.05 | 0.05 | 73 | 1017.2 |
| 20260906150520 | 73 | 76 | 1.0 | 6.0 | 0.01 | 0.05 | 0.05 | 73 | 1017.3 |
| 20260906150020 | 73 | 76 | 3.0 | 5.0 | 0.01 | 0.05 | 0.05 | 72 | 1017.1 |
| 20260906145519 | 72 | 76 | 0.0 | 8.0 | 0.01 | 0.05 | 0.05 | 77 | 1017.1 |
| 20260906145017 | 71 | 76 | 4.0 | 8.0 | 0.01 | 0.05 | 0.05 | 79 | 1017.1 |
| 20260906144519 | 70 | 76 | 1.0 | 5.0 | 0.01 | 0.05 | 0.05 | 79 | 1017.1 |
| 20260906144016 | 70 | 76 | 1.0 | 8.0 | 0.01 | 0.05 | 0.05 | 80 | 1017.2 |
| 20260906143516 | 70 | 76 | 0.0 | 5.0 | 0.01 | 0.05 | 0.05 | 81 | 1017.2 |
| 20260906143015 | 70 | 76 | 3.0 | 5.0 | 0.01 | 0.05 | 0.05 | 80 | 1017.2 |
| 20260906142515 | 70 | 76 | 1.0 | 5.0 | 0.01 | 0.05 | 0.05 | 80 | 1017.2 |
| 20260906142016 | 70 | 76 | 1.0 | 5.0 | 0.01 | 0.05 | 0.05 | 80 | 1017.1 |
| 20260906141516 | 70 | 76 | 2.0 | 5.0 | 0.00 | 0.04 | 0.04 | 79 | 1017.1 |
| 20260906141016 | 70 | 76 | 1.0 | 5.0 | 0.00 | 0.04 | 0.04 | 80 | 1017.0 |
| 20260906140515 | 70 | 76 | 2.0 | 6.0 | 0.00 | 0.04 | 0.04 | 80 | 1017.0 |
| 20260906140030 | 70 | 76 | 1.0 | 6.0 | 0.00 | 0.04 | 0.04 | 81 | 1017.0 |
| 20260906135515 | 71 | 76 | 3.0 | 6.0 | 0.00 | 0.04 | 0.04 | 79 | 1017.0 |
| 20260906135017 | 70 | 76 | 2.0 | 5.0 | 0.00 | 0.04 | 0.04 | 80 | 1017.0 |
| 20260906134515 | 69 | 76 | 1.0 | 5.0 | 0.00 | 0.04 | 0.04 | 81 | 1016.9 |
| 20260906134014 | 69 | 76 | 1.0 | 5.0 | 0.00 | 0.04 | 0.04 | 82 | 1017.0 |
| 20260906133513 | 69 | 76 | 3.0 | 5.0 | 0.00 | 0.04 | 0.04 | 82 | 1016.9 |
| 20260906133022 | 68 | 76 | 2.0 | 6.0 | 0.00 | 0.04 | 0.04 | 82 | 1017.0 |
| 20260906132514 | 68 | 76 | 3.0 | 9.0 | 0.00 | 0.04 | 0.04 | 81 | 1017.0 |
| 20260906132014 | 69 | 76 | 3.0 | 7.0 | 0.00 | 0.04 | 0.04 | 79 | 1017.0 |
| 20260906131513 | 69 | 76 | 3.0 | 7.0 | 0.00 | 0.04 | 0.04 | 77 | 1017.0 |
| 20260906131014 | 69 | 76 | 2.0 | 7.0 | 0.00 | 0.04 | 0.04 | 76 | 1016.9 |
| 20260906130512 | 70 | 76 | 2.0 | 6.0 | 0.00 | 0.04 | 0.04 | 76 | 1016.9 |
| 20260906130021 | 69 | 76 | 3.0 | 10.0 | 0.00 | 0.04 | 0.04 | 76 | 1016.9 |
| 20260906125513 | 69 | 76 | 4.0 | 10.0 | 0.00 | 0.04 | 0.04 | 76 | 1016.9 |
| 20260906125014 | 69 | 76 | 2.0 | 9.0 | 0.00 | 0.04 | 0.04 | 77 | 1016.9 |
| 20260906124511 | 68 | 76 | 4.0 | 9.0 | 0.00 | 0.04 | 0.04 | 77 | 1016.8 |
| 20260906124011 | 68 | 76 | 3.0 | 9.0 | 0.00 | 0.04 | 0.04 | 78 | 1016.8 |
| 20260906123509 | 67 | 76 | 2.0 | 6.0 | 0.00 | 0.04 | 0.04 | 78 | 1016.7 |
| 20260906123016 | 67 | 76 | 3.0 | 6.0 | 0.00 | 0.04 | 0.04 | 79 | 1016.6 |
| 20260906122512 | 67 | 76 | 2.0 | 5.0 | 0.00 | 0.04 | 0.04 | 79 | 1016.6 |
| 20260906122009 | 68 | 76 | 1.0 | 6.0 | 0.00 | 0.04 | 0.04 | 79 | 1016.7 |
| 20260906121508 | 68 | 76 | 1.0 | 6.0 | 0.00 | 0.04 | 0.04 | 81 | 1016.7 |
| 20260906121007 | 67 | 76 | 2.0 | 5.0 | 0.00 | 0.04 | 0.04 | 82 | 1016.6 |
| 20260906120507 | 67 | 76 | 0.0 | 4.0 | 0.00 | 0.04 | 0.04 | 82 | 1016.6 |
| 20260906120006 | 67 | 76 | 1.0 | 4.0 | 0.00 | 0.04 | 0.04 | 83 | 1016.4 |
| 20260906115507 | 67 | 76 | 0.0 | 4.0 | 0.00 | 0.04 | 0.04 | 83 | 1016.3 |
| 20260906115005 | 66 | 76 | 0.0 | 4.0 | 0.00 | 0.04 | 0.04 | 84 | 1016.2 |
| 20260906114508 | 66 | 76 | 0.0 | 4.0 | 0.00 | 0.04 | 0.04 | 84 | 1016.0 |
| 20260906114005 | 66 | 76 | 1.0 | 4.0 | 0.00 | 0.04 | 0.04 | 84 | 1016.0 |
| 20260906113502 | 65 | 76 | 0.0 | 2.0 | 0.00 | 0.04 | 0.04 | 84 | 1015.9 |
| 20260906113003 | 65 | 76 | 0.0 | 2.0 | 0.00 | 0.04 | 0.04 | 85 | 1015.7 |
| 20260906112503 | 65 | 76 | 0.0 | 3.0 | 0.00 | 0.04 | 0.04 | 84 | 1015.5 |
| 20260906112100 | 65 | 76 | 1.0 | 3.0 | 0.00 | 0.04 | 0.04 | 85 | 1015.6 |
| 20260906111617 | 64 | 76 | 0.0 | 4.0 | 0.00 | 0.04 | 0.04 | 85 | 1015.6 |
| 20260906111059 | 64 | 76 | 1.0 | 4.0 | 0.00 | 0.04 | 0.04 | 86 | 1015.5 |
| 20260906110559 | 64 | 76 | 0.0 | 5.0 | 0.00 | 0.04 | 0.04 | 86 | 1015.5 |
| 20260906110059 | 63 | 76 | 1.0 | 3.0 | 0.00 | 0.04 | 0.04 | 87 | 1015.6 |
| 20260906105558 | 63 | 76 | 0.0 | 3.0 | 0.00 | 0.04 | 0.04 | 88 | 1015.5 |
| 20260906105102 | 63 | 76 | 0.0 | 3.0 | 0.00 | 0.04 | 0.04 | 88 | 1015.5 |
| 20260906104558 | 63 | 76 | 0.0 | 5.0 | 0.00 | 0.04 | 0.04 | 89 | 1015.5 |
| 20260906104058 | 63 | 76 | 1.0 | 5.0 | 0.00 | 0.04 | 0.04 | 90 | 1015.5 |
| 20260906103558 | 63 | 76 | 2.0 | 5.0 | 0.00 | 0.04 | 0.04 | 90 | 1015.5 |
| 20260906103057 | 63 | 76 | 1.0 | 6.0 | 0.00 | 0.04 | 0.04 | 91 | 1015.4 |
| 20260906102556 | 62 | 76 | 2.0 | 5.0 | 0.00 | 0.04 | 0.04 | 91 | 1015.3 |
| 20260906102056 | 62 | 76 | 2.0 | 5.0 | 0.00 | 0.04 | 0.04 | 92 | 1015.3 |
| 20260906101556 | 62 | 76 | 1.0 | 5.0 | 0.00 | 0.04 | 0.04 | 92 | 1015.3 |
| 20260906101055 | 62 | 76 | 2.0 | 5.0 | 0.00 | 0.04 | 0.04 | 92 | 1015.2 |
| 20260906100556 | 62 | 76 | 1.0 | 4.0 | 0.00 | 0.04 | 0.04 | 92 | 1015.2 |
| 20260906100100 | 62 | 76 | 1.0 | 3.0 | 0.00 | 0.04 | 0.04 | 92 | 1015.2 |
| 20260906095553 | 62 | 76 | 1.0 | 4.0 | 0.00 | 0.04 | 0.04 | 92 | 1015.0 |
| 20260906095053 | 62 | 76 | 1.0 | 4.0 | 0.00 | 0.04 | 0.04 | 92 | 1015.0 |
| 20260906094553 | 62 | 76 | 0.0 | 3.0 | 0.00 | 0.04 | 0.04 | 92 | 1014.9 |
| 20260906094052 | 62 | 76 | 0.0 | 3.0 | 0.00 | 0.04 | 0.04 | 92 | 1014.9 |
| 20260906093550 | 63 | 76 | 0.0 | 4.0 | 0.00 | 0.04 | 0.04 | 92 | 1014.9 |
| 20260906093050 | 63 | 76 | 1.0 | 4.0 | 0.00 | 0.04 | 0.04 | 92 | 1014.7 |
| 20260906092550 | 63 | 76 | 1.0 | 3.0 | 0.00 | 0.04 | 0.04 | 92 | 1014.5 |
| 20260906092049 | 63 | 76 | 0.0 | 3.0 | 0.00 | 0.04 | 0.04 | 92 | 1014.5 |
| 20260906091548 | 63 | 76 | 0.0 | 5.0 | 0.00 | 0.04 | 0.04 | 93 | 1014.5 |
| 20260906091047 | 63 | 76 | 1.0 | 4.0 | 0.00 | 0.04 | 0.04 | 93 | 1014.5 |
| 20260906090546 | 63 | 76 | 0.0 | 4.0 | 0.00 | 0.04 | 0.04 | 93 | 1014.5 |
| 20260906090046 | 63 | 76 | 1.0 | 4.0 | 0.00 | 0.04 | 0.04 | 93 | 1014.4 |
| 20260906085547 | 64 | 76 | 1.0 | 8.0 | 0.00 | 0.04 | 0.04 | 93 | 1014.5 |
| 20260906085044 | 64 | 76 | 1.0 | 8.0 | 0.00 | 0.04 | 0.04 | 93 | 1014.3 |
| 20260906084543 | 64 | 76 | 1.0 | 4.0 | 0.00 | 0.04 | 0.04 | 93 | 1014.4 |
| 20260906084043 | 64 | 76 | 1.0 | 6.0 | 0.00 | 0.04 | 0.04 | 94 | 1014.4 |
| 20260906083541 | 64 | 76 | 2.0 | 9.0 | 0.00 | 0.04 | 0.04 | 93 | 1014.3 |
| 20260906083041 | 65 | 76 | 3.0 | 9.0 | 0.00 | 0.04 | 0.04 | 94 | 1014.2 |
| 20260906082539 | 65 | 76 | 2.0 | 6.0 | 0.00 | 0.04 | 0.04 | 94 | 1014.1 |
| 20260906082040 | 65 | 76 | 2.0 | 5.0 | 0.00 | 0.04 | 0.04 | 94 | 1014.1 |
| 20260906081539 | 65 | 76 | 2.0 | 5.0 | 0.00 | 0.04 | 0.04 | 94 | 1014.1 |
| 20260906081038 | 66 | 76 | 1.0 | 3.0 | 0.00 | 0.04 | 0.04 | 94 | 1014.1 |
| 20260906080538 | 66 | 76 | 1.0 | 4.0 | 0.00 | 0.04 | 0.04 | 94 | 1014.1 |
| 20260906080038 | 66 | 76 | 2.0 | 4.0 | 0.00 | 0.04 | 0.04 | 94 | 1014.1 |
| 20260906075536 | 66 | 76 | 0.0 | 3.0 | 0.00 | 0.04 | 0.04 | 94 | 1014.0 |
| 20260906075038 | 66 | 76 | 0.0 | 3.0 | 0.00 | 0.04 | 0.04 | 94 | 1014.1 |
| 20260906074542 | 66 | 76 | 1.0 | 3.0 | 0.00 | 0.04 | 0.04 | 94 | 1014.1 |
| 20260906074036 | 66 | 76 | 0.0 | 3.0 | 0.00 | 0.04 | 0.04 | 93 | 1014.1 |
| 20260906073536 | 66 | 76 | 0.0 | 1.0 | 0.00 | 0.04 | 0.04 | 93 | 1014.1 |
| 20260906073035 | 66 | 76 | 0.0 | 1.0 | 0.00 | 0.04 | 0.04 | 93 | 1014.1 |
| 20260906072535 | 66 | 76 | 0.0 | 2.0 | 0.00 | 0.04 | 0.04 | 93 | 1014.1 |
| 20260906072036 | 66 | 76 | 0.0 | 3.0 | 0.00 | 0.04 | 0.04 | 93 | 1014.1 |
| 20260906071535 | 66 | 76 | 0.0 | 3.0 | 0.00 | 0.04 | 0.04 | 94 | 1014.1 |
| 20260906071035 | 66 | 76 | 0.0 | 3.0 | 0.00 | 0.04 | 0.04 | 94 | 1014.1 |
| 20260906070535 | 66 | 76 | 0.0 | 5.0 | 0.00 | 0.04 | 0.04 | 94 | 1014.0 |
| 20260906070036 | 66 | 76 | 1.0 | 5.0 | 0.00 | 0.04 | 0.04 | 94 | 1014.0 |
| 20260906065535 | 66 | 76 | 0.0 | 5.0 | 0.01 | 0.04 | 0.04 | 93 | 1013.9 |
| 20260906065033 | 66 | 76 | 1.0 | 5.0 | 0.03 | 0.04 | 0.04 | 94 | 1013.9 |
| 20260906064532 | 66 | 76 | 2.0 | 5.0 | 0.03 | 0.04 | 0.04 | 93 | 1013.9 |
| 20260906064032 | 66 | 76 | 2.0 | 5.0 | 0.03 | 0.04 | 0.04 | 93 | 1014.0 |
| 20260906063531 | 66 | 76 | 2.0 | 5.0 | 0.03 | 0.04 | 0.04 | 93 | 1014.1 |
| 20260906063036 | 66 | 76 | 1.0 | 5.0 | 0.03 | 0.04 | 0.04 | 93 | 1014.1 |
| 20260906062529 | 66 | 76 | 1.0 | 9.0 | 0.03 | 0.04 | 0.04 | 92 | 1014.2 |
| 20260906062029 | 66 | 76 | 1.0 | 9.0 | 0.04 | 0.04 | 0.04 | 92 | 1014.2 |
| 20260906061529 | 66 | 76 | 1.0 | 10.0 | 0.04 | 0.04 | 0.04 | 92 | 1014.3 |
| 20260906061028 | 66 | 76 | 4.0 | 10.0 | 0.04 | 0.04 | 0.04 | 91 | 1014.2 |
| 20260906060527 | 67 | 76 | 4.0 | 11.0 | 0.04 | 0.04 | 0.04 | 91 | 1014.3 |
| 20260906060025 | 67 | 76 | 4.0 | 13.0 | 0.04 | 0.04 | 0.04 | 90 | 1014.3 |
| 20260906055524 | 68 | 80 | 3.0 | 11.0 | 0.02 | 0.02 | 0.02 | 90 | 1014.3 |
| 20260906055023 | 68 | 80 | 5.0 | 11.0 | 0.01 | 0.01 | 0.01 | 89 | 1014.3 |
| 20260906054537 | 69 | 81 | 7.0 | 13.0 | 0.01 | 0.01 | 0.01 | 89 | 1014.3 |
| 20260906054021 | 69 | 83 | 5.0 | 13.0 | 0.01 | 0.01 | 0.01 | 89 | 1014.2 |
| 20260906053520 | 69 | 82 | 4.0 | 12.0 | 0.01 | 0.01 | 0.01 | 89 | 1014.2 |
| 20260906053020 | 69 | 82 | 4.0 | 14.0 | 0.01 | 0.01 | 0.01 | 89 | 1014.2 |
| 20260906052519 | 69 | 78 | 7.0 | 12.0 | 0.01 | 0.01 | 0.01 | 89 | 1014.2 |
| 20260906052019 | 70 | 78 | 2.0 | 12.0 | 0.00 | 0.00 | 0.00 | 88 | 1014.2 |
| 20260906051524 | 70 | 78 | 5.0 | 14.0 | 0.00 | 0.00 | 0.00 | 88 | 1014.2 |
| 20260906051017 | 70 | 78 | 4.0 | 14.0 | 0.00 | 0.00 | 0.00 | 88 | 1014.3 |
| 20260906050518 | 70 | 72 | 6.0 | 13.0 | 0.00 | 0.00 | 0.00 | 88 | 1014.2 |
| 20260906050024 | 70 | 72 | 4.0 | 13.0 | 0.00 | 0.00 | 0.00 | 87 | 1014.2 |
| 20260906045514 | 70 | 69 | 3.0 | 13.0 | 0.00 | 0.00 | 0.00 | 87 | 1014.3 |
| 20260906045014 | 70 | 69 | 5.0 | 14.0 | 0.00 | 0.00 | 0.00 | 87 | 1014.2 |
| 20260906044514 | 70 | 57 | 4.0 | 14.0 | 0.00 | 0.00 | 0.00 | 87 | 1014.3 |
| 20260906044012 | 70 | 39 | 3.0 | 10.0 | 0.00 | 0.00 | 0.00 | 87 | 1014.3 |
| 20260906043517 | 70 | 39 | 6.0 | 12.0 | 0.00 | 0.00 | 0.00 | 87 | 1014.3 |
| 20260906043012 | 70 | 39 | 4.0 | 12.0 | 0.00 | 0.00 | 0.00 | 87 | 1014.2 |
| 20260906042510 | 71 | 35 | 6.0 | 11.0 | 0.00 | 0.00 | 0.00 | 87 | 1014.3 |
| 20260906042009 | 71 | 34 | 8.0 | 11.0 | 0.00 | 0.00 | 0.00 | 86 | 1014.3 |
| 20260906041509 | 70 | 34 | 4.0 | 14.0 | 0.00 | 0.00 | 0.00 | 86 | 1014.3 |
| 20260906041009 | 70 | 34 | 5.0 | 14.0 | 0.00 | 0.00 | 0.00 | 86 | 1014.3 |
| 20260906040507 | 70 | 11 | 3.0 | 10.0 | 0.00 | 0.00 | 0.00 | 86 | 1014.3 |
| 20260906040007 | 70 | 11 | 5.0 | 12.0 | 0.00 | 0.00 | 0.00 | 87 | 1014.3 |
| 20260906035506 | 70 | 11 | 6.0 | 12.0 | 0.00 | 0.00 | 0.00 | 87 | 1014.3 |
| 20260906035007 | 70 | 360 | 1.0 | 10.0 | 0.00 | 0.00 | 0.00 | 88 | 1014.2 |
| 20260906034505 | 70 | 360 | 3.0 | 10.0 | 0.00 | 0.00 | 0.00 | 88 | 1014.2 |
| 20260906034004 | 70 | 355 | 3.0 | 11.0 | 0.00 | 0.00 | 0.00 | 88 | 1014.1 |
| 20260906033503 | 70 | 355 | 3.0 | 11.0 | 0.00 | 0.00 | 0.00 | 87 | 1014.0 |
| 20260906033003 | 70 | 350 | 4.0 | 11.0 | 0.00 | 0.00 | 0.00 | 87 | 1014.1 |
| 20260906032502 | 70 | 343 | 3.0 | 10.0 | 0.00 | 0.00 | 0.00 | 86 | 1014.0 |
| 20260906032002 | 70 | 342 | 4.0 | 10.0 | 0.00 | 0.00 | 0.00 | 86 | 1014.0 |
| 20260906031506 | 70 | 337 | 3.0 | 11.0 | 0.00 | 0.00 | 0.00 | 86 | 1014.0 |
| 20260906031005 | 70 | 333 | 7.0 | 11.0 | 0.00 | 0.00 | 0.00 | 86 | 1014.0 |
| 20260906030502 | 70 | 324 | 2.0 | 9.0 | 0.00 | 0.00 | 0.00 | 86 | 1014.0 |
| 20260906030004 | 71 | 324 | 4.0 | 9.0 | 0.00 | 0.00 | 0.00 | 86 | 1013.9 |
| 20260906025503 | 71 | 323 | 4.0 | 9.0 | 0.00 | 0.00 | 0.00 | 86 | 1013.9 |
| 20260906025002 | 71 | 324 | 4.0 | 9.0 | 0.00 | 0.00 | 0.00 | 86 | 1014.0 |
| 20260906024502 | 71 | 324 | 4.0 | 9.0 | 0.00 | 0.00 | 0.00 | 85 | 1014.0 |
| 20260906024001 | 71 | 324 | 2.0 | 10.0 | 0.00 | 0.00 | 0.00 | 85 | 1014.0 |
| 20260906023604 | 71 | 323 | 3.0 | 10.0 | 0.00 | 0.00 | 0.00 | 84 | 1014.0 |
| 20260906023103 | 72 | 323 | 5.0 | 9.0 | 0.00 | 0.00 | 0.00 | 84 | 1014.0 |
| 20260906022559 | 72 | 324 | 4.0 | 9.0 | 0.00 | 0.00 | 0.00 | 83 | 1013.9 |
| 20260906022101 | 72 | 324 | 4.0 | 10.0 | 0.00 | 0.00 | 0.00 | 81 | 1014.0 |
| 20260906021604 | 73 | 323 | 4.0 | 10.0 | 0.00 | 0.00 | 0.00 | 78 | 1014.1 |
| 20260906021057 | 73 | 324 | 3.0 | 8.0 | 0.00 | 0.00 | 0.00 | 75 | 1013.9 |
| 20260906020557 | 73 | 323 | 3.0 | 8.0 | 0.00 | 0.00 | 0.00 | 73 | 1013.8 |
| 20260906020057 | 73 | 323 | 3.0 | 8.0 | 0.00 | 0.00 | 0.00 | 73 | 1013.7 |
| 20260906015555 | 73 | 323 | 1.0 | 10.0 | 0.00 | 0.00 | 0.00 | 72 | 1013.7 |
| 20260906015055 | 73 | 324 | 2.0 | 10.0 | 0.00 | 0.00 | 0.00 | 71 | 1013.5 |
| 20260906014556 | 73 | 324 | 2.0 | 6.0 | 0.00 | 0.00 | 0.00 | 71 | 1013.5 |
| 20260906014055 | 74 | 324 | 2.0 | 12.0 | 0.00 | 0.00 | 0.00 | 70 | 1013.5 |
| 20260906013557 | 74 | 324 | 3.0 | 8.0 | 0.00 | 0.00 | 0.00 | 70 | 1013.5 |
| 20260906013056 | 74 | 323 | 3.0 | 6.0 | 0.00 | 0.00 | 0.00 | 70 | 1013.4 |
| 20260906012552 | 74 | 324 | 2.0 | 6.0 | 0.00 | 0.00 | 0.00 | 69 | 1013.4 |
| 20260906012151 | 74 | 323 | 1.0 | 5.0 | 0.00 | 0.00 | 0.00 | 69 | 1013.3 |
| 20260906011552 | 74 | 324 | 2.0 | 6.0 | 0.00 | 0.00 | 0.00 | 69 | 1013.2 |
| 20260906011053 | 74 | 324 | 3.0 | 6.0 | 0.00 | 0.00 | 0.00 | 69 | 1013.2 |
| 20260906010550 | 74 | 323 | 0.0 | 4.0 | 0.00 | 0.00 | 0.00 | 69 | 1013.1 |
| 20260906010053 | 74 | 324 | 1.0 | 4.0 | 0.00 | 0.00 | 0.00 | 69 | 1013.1 |
| 20260906005550 | 74 | 324 | 1.0 | 4.0 | 0.00 | 0.00 | 0.00 | 68 | 1013.1 |
| 20260906005050 | 74 | 324 | 1.0 | 3.0 | 0.00 | 0.00 | 0.00 | 68 | 1013.2 |
| 20260906004550 | 74 | 324 | 1.0 | 3.0 | 0.00 | 0.00 | 0.00 | 68 | 1013.0 |
| 20260906004049 | 74 | 323 | 0.0 | 3.0 | 0.00 | 0.00 | 0.00 | 68 | 1013.0 |
| 20260906003548 | 74 | 323 | 1.0 | 3.0 | 0.00 | 0.00 | 0.00 | 67 | 1013.0 |
| 20260906003048 | 75 | 324 | 1.0 | 4.0 | 0.00 | 0.00 | 0.00 | 67 | 1012.9 |
| 20260906002547 | 75 | 323 | 1.0 | 4.0 | 0.00 | 0.00 | 0.00 | 67 | 1012.7 |
| 20260906002051 | 75 | 324 | 2.0 | 8.0 | 0.00 | 0.00 | 0.00 | 66 | 1012.7 |
| 20260906001547 | 75 | 324 | 1.0 | 5.0 | 0.00 | 0.00 | 0.00 | 67 | 1012.7 |
| 20260906001048 | 75 | 323 | 2.0 | 5.0 | 0.00 | 0.00 | 0.00 | 66 | 1012.6 |
| 20260906000551 | 75 | 323 | 1.0 | 5.0 | 0.00 | 0.00 | 0.00 | 65 | 1012.6 |
| 20260906000055 | 75 | 324 | 1.0 | 6.0 | 0.00 | 0.00 | 0.00 | 65 | 1012.5 |
| 20260905235549 | 75 | 324 | 2.0 | 6.0 | 0.00 | 0.00 | 0.00 | 65 | 1012.5 |
| 20260905235048 | 76 | 324 | 1.0 | 8.0 | 0.00 | 0.00 | 0.00 | 64 | 1012.4 |
| 20260905234550 | 76 | 324 | 1.0 | 9.0 | 0.00 | 0.00 | 0.00 | 64 | 1012.4 |
| 20260905234046 | 76 | 324 | 2.0 | 9.0 | 0.00 | 0.00 | 0.00 | 63 | 1012.3 |
| 20260905233547 | 76 | 324 | 3.0 | 8.0 | 0.00 | 0.00 | 0.00 | 63 | 1012.3 |
| 20260905233049 | 76 | 324 | 3.0 | 8.0 | 0.00 | 0.00 | 0.00 | 63 | 1012.4 |
| 20260905232545 | 76 | 323 | 3.0 | 8.0 | 0.00 | 0.00 | 0.00 | 62 | 1012.3 |
| 20260905232048 | 77 | 324 | 3.0 | 6.0 | 0.00 | 0.00 | 0.00 | 62 | 1012.5 |